Time,TemperatureF,DewpointF,PressureIn,WindDirection,WindDirectionDegrees,WindSpeedMPH,WindSpeedGustMPH,Humidity,HourlyPrecipIn,Conditions,Clouds,dailyrainin,SoftwareType,DateUTC
2013-04-28 00:05:00,58.3,4.0,29.95,WNW,292,3.1,-999.0,11,-99.99,,,0.00,Acu-Link.com,2013-04-28 06:05:00,
2013-04-28 00:20:00,57.6,5.4,29.95,WSW,247,1.6,-999.0,12,-99.99,,,0.00,Acu-Link.com,2013-04-28 06:20:00,
2013-04-28 00:35:00,56.5,4.5,29.95,West,270,1.6,-999.0,12,-99.99,,,0.00,Acu-Link.com,2013-04-28 06:35:00,
2013-04-28 00:50:00,56.5,4.5,29.95,WNW,292,2.7,-999.0,12,-99.99,,,0.00,Acu-Link.com,2013-04-28 06:50:00,
2013-04-28 01:06:00,56.5,4.5,29.94,West,270,3.1,-999.0,12,-99.99,,,0.00,Acu-Link.com,2013-04-28 07:06:00,
2013-04-28 01:21:00,56.3,4.4,29.94,West,270,3.1,-999.0,12,-99.99,,,0.00,Acu-Link.com,2013-04-28 07:21:00,
2013-04-28 01:36:00,55.8,4.0,29.95,West,270,3.1,-999.0,12,-99.99,,,0.00,Acu-Link.com,2013-04-28 07:36:00,
2013-04-28 01:51:00,56.3,4.4,29.94,West,270,6.3,-999.0,12,-99.99,,,0.00,Acu-Link.com,2013-04-28 07:51:00,
2013-04-28 02:07:00,55.9,4.1,29.94,West,270,4.7,-999.0,12,-99.99,,,0.00,Acu-Link.com,2013-04-28 08:07:00,
2013-04-28 02:22:00,55.4,3.7,29.94,West,270,4.3,-999.0,12,-99.99,,,0.00,Acu-Link.com,2013-04-28 08:22:00,
2013-04-28 02:37:00,52.7,3.3,29.94,WNW,292,0.0,-999.0,13,-99.99,,,0.00,Acu-Link.com,2013-04-28 08:37:00,
2013-04-28 02:52:00,50.4,9.7,29.93,East,90,0.0,-999.0,19,-99.99,,,0.00,Acu-Link.com,2013-04-28 08:52:00,
2013-04-28 03:07:00,49.6,18.7,29.93,NNE,22,0.0,-999.0,29,-99.99,,,0.00,Acu-Link.com,2013-04-28 09:07:00,
2013-04-28 03:22:00,48.4,9.2,29.94,West,270,0.0,-999.0,20,-99.99,,,0.00,Acu-Link.com,2013-04-28 09:22:00,
2013-04-28 03:37:00,47.8,9.8,29.93,WNW,292,0.0,-999.0,21,-99.99,,,0.00,Acu-Link.com,2013-04-28 09:37:00,
2013-04-28 03:53:00,47.1,9.2,29.93,West,270,1.1,-999.0,21,-99.99,,,0.00,Acu-Link.com,2013-04-28 09:53:00,
2013-04-28 04:08:00,46.6,8.8,29.94,West,270,0.0,-999.0,21,-99.99,,,0.00,Acu-Link.com,2013-04-28 10:08:00,
2013-04-28 04:23:00,46.8,8.9,29.93,NE,45,1.1,-999.0,21,-99.99,,,0.00,Acu-Link.com,2013-04-28 10:23:00,
2013-04-28 04:38:00,47.5,9.5,29.93,NW,315,4.7,-999.0,21,-99.99,,,0.00,Acu-Link.com,2013-04-28 10:38:00,
2013-04-28 04:53:00,47.8,8.7,29.93,NNW,337,3.1,-999.0,20,-99.99,,,0.00,Acu-Link.com,2013-04-28 10:53:00,
2013-04-28 05:09:00,47.8,8.7,29.93,NNE,22,4.3,-999.0,20,-99.99,,,0.00,Acu-Link.com,2013-04-28 11:09:00,
2013-04-28 05:24:00,48.2,9.0,29.94,East,90,3.8,-999.0,20,-99.99,,,0.00,Acu-Link.com,2013-04-28 11:24:00,
2013-04-28 05:39:00,48.2,9.0,29.93,SE,135,1.1,-999.0,20,-99.99,,,0.00,Acu-Link.com,2013-04-28 11:39:00,
2013-04-28 05:54:00,47.1,8.1,29.94,NE,45,1.6,-999.0,20,-99.99,,,0.00,Acu-Link.com,2013-04-28 11:54:00,
2013-04-28 06:09:00,46.0,11.3,29.93,ENE,67,0.0,-999.0,24,-99.99,,,0.00,Acu-Link.com,2013-04-28 12:09:00,
2013-04-28 06:25:00,44.1,15.4,29.94,ENE,67,2.7,-999.0,31,-99.99,,,0.00,Acu-Link.com,2013-04-28 12:25:00,
2013-04-28 06:40:00,43.5,14.2,29.95,ENE,67,0.0,-999.0,30,-99.99,,,0.00,Acu-Link.com,2013-04-28 12:40:00,
2013-04-28 06:55:00,45.7,13.6,29.96,NNW,337,1.1,-999.0,27,-99.99,,,0.00,Acu-Link.com,2013-04-28 12:55:00,
2013-04-28 07:10:00,48.7,11.6,29.96,NW,315,3.8,-999.0,22,-99.99,,,0.00,Acu-Link.com,2013-04-28 13:10:00,
2013-04-28 07:26:00,51.8,10.9,29.97,NNW,337,1.6,-999.0,19,-99.99,,,0.00,Acu-Link.com,2013-04-28 13:26:00,
2013-04-28 07:41:00,55.2,12.5,29.97,ENE,67,1.6,-999.0,18,-99.99,,,0.00,Acu-Link.com,2013-04-28 13:41:00,
2013-04-28 07:56:00,55.9,13.1,29.98,NE,45,4.7,-999.0,18,-99.99,,,0.00,Acu-Link.com,2013-04-28 13:56:00,
2013-04-28 08:11:00,58.1,13.5,29.97,ENE,67,3.8,-999.0,17,-99.99,,,0.00,Acu-Link.com,2013-04-28 14:11:00,
2013-04-28 08:26:00,59.9,15.0,29.97,NNE,22,2.7,-999.0,17,-99.99,,,0.00,Acu-Link.com,2013-04-28 14:26:00,
2013-04-28 08:42:00,62.1,16.8,29.97,NE,45,2.7,-999.0,17,-99.99,,,0.00,Acu-Link.com,2013-04-28 14:42:00,
2013-04-28 08:57:00,61.7,15.1,29.98,NE,45,4.7,-999.0,16,-99.99,,,0.00,Acu-Link.com,2013-04-28 14:57:00,
2013-04-28 09:12:00,61.2,16.0,29.97,East,90,3.8,-999.0,17,-99.99,,,0.00,Acu-Link.com,2013-04-28 15:12:00,
2013-04-28 09:27:00,61.7,16.5,29.96,ENE,67,3.8,-999.0,17,-99.99,,,0.00,Acu-Link.com,2013-04-28 15:27:00,
2013-04-28 09:42:00,63.5,16.5,29.97,NE,45,4.7,-999.0,16,-99.99,,,0.00,Acu-Link.com,2013-04-28 15:42:00,
2013-04-28 09:57:00,64.4,17.2,29.96,ENE,67,4.3,-999.0,16,-99.99,,,0.00,Acu-Link.com,2013-04-28 15:57:00,
2013-04-28 10:13:00,66.4,17.3,29.96,NNE,22,2.7,-999.0,15,-99.99,,,0.00,Acu-Link.com,2013-04-28 16:13:00,
2013-04-28 10:28:00,68.2,17.2,29.96,NNW,337,2.7,-999.0,14,-99.99,,,0.00,Acu-Link.com,2013-04-28 16:28:00,
2013-04-28 10:43:00,69.1,16.2,29.95,North,0,3.1,-999.0,13,-99.99,,,0.00,Acu-Link.com,2013-04-28 16:43:00,
2013-04-28 10:58:00,71.4,16.2,29.95,WNW,292,1.6,-999.0,12,-99.99,,,0.00,Acu-Link.com,2013-04-28 16:58:00,
2013-04-28 11:14:00,73.9,16.1,29.95,SSE,157,2.2,-999.0,11,-99.99,,,0.00,Acu-Link.com,2013-04-28 17:14:00,
2013-04-28 11:29:00,73.8,13.8,29.94,West,270,0.0,-999.0,10,-99.99,,,0.00,Acu-Link.com,2013-04-28 17:29:00,
2013-04-28 11:44:00,76.8,16.1,29.93,South,180,3.1,-999.0,10,-99.99,,,0.00,Acu-Link.com,2013-04-28 17:44:00,
2013-04-28 11:59:00,77.4,14.1,29.93,SSW,202,2.7,-999.0,9,-99.99,,,0.00,Acu-Link.com,2013-04-28 17:59:00,
2013-04-28 12:14:00,78.8,17.6,29.92,NNE,22,1.6,-999.0,10,-99.99,,,0.00,Acu-Link.com,2013-04-28 18:14:00,
2013-04-28 12:30:00,79.2,12.8,29.91,ESE,112,4.7,-999.0,8,-99.99,,,0.00,Acu-Link.com,2013-04-28 18:30:00,
2013-04-28 12:45:00,80.2,13.6,29.90,South,180,3.8,-999.0,8,-99.99,,,0.00,Acu-Link.com,2013-04-28 18:45:00,
2013-04-28 13:00:00,81.0,14.1,29.89,ENE,67,3.1,-999.0,8,-99.99,,,0.00,Acu-Link.com,2013-04-28 19:00:00,
2013-04-28 13:15:00,82.4,15.2,29.89,West,270,1.6,-999.0,8,-99.99,,,0.00,Acu-Link.com,2013-04-28 19:15:00,
2013-04-28 13:30:00,80.6,13.9,29.87,SW,225,3.1,-999.0,8,-99.99,,,0.00,Acu-Link.com,2013-04-28 19:30:00,
2013-04-28 13:46:00,84.0,13.4,29.86,West,270,4.7,-999.0,7,-99.99,,,0.00,Acu-Link.com,2013-04-28 19:46:00,
2013-04-28 14:01:00,81.1,11.3,29.87,NW,315,3.1,-999.0,7,-99.99,,,0.00,Acu-Link.com,2013-04-28 20:01:00,
2013-04-28 14:16:00,83.1,12.7,29.85,WNW,292,7.8,-999.0,7,-99.99,,,0.00,Acu-Link.com,2013-04-28 20:16:00,
2013-04-28 14:31:00,83.8,13.2,29.84,SW,225,4.3,-999.0,7,-99.99,,,0.00,Acu-Link.com,2013-04-28 20:31:00,
2013-04-28 14:46:00,82.8,9.0,29.83,West,270,4.7,-999.0,6,-99.99,,,0.00,Acu-Link.com,2013-04-28 20:46:00,
2013-04-28 15:02:00,84.0,9.9,29.83,SW,225,3.1,-999.0,6,-99.99,,,0.00,Acu-Link.com,2013-04-28 21:02:00,
2013-04-28 15:17:00,82.4,8.7,29.81,West,270,4.7,-999.0,6,-99.99,,,0.00,Acu-Link.com,2013-04-28 21:17:00,
2013-04-28 15:32:00,83.7,9.6,29.81,NNW,337,9.8,-999.0,6,-99.99,,,0.00,Acu-Link.com,2013-04-28 21:32:00,
2013-04-28 15:47:00,83.1,9.2,29.80,NNE,22,3.1,-999.0,6,-99.99,,,0.00,Acu-Link.com,2013-04-28 21:47:00,
2013-04-28 16:02:00,83.7,9.6,29.80,SE,135,2.2,-999.0,6,-99.99,,,0.00,Acu-Link.com,2013-04-28 22:02:00,
2013-04-28 16:18:00,83.3,9.4,29.78,South,180,2.7,-999.0,6,-99.99,,,0.00,Acu-Link.com,2013-04-28 22:18:00,
2013-04-28 16:33:00,84.0,9.9,29.78,West,270,2.7,-999.0,6,-99.99,,,0.00,Acu-Link.com,2013-04-28 22:33:00,
2013-04-28 16:48:00,84.0,5.9,29.77,SW,225,4.3,-999.0,5,-99.99,,,0.00,Acu-Link.com,2013-04-28 22:48:00,
2013-04-28 17:03:00,83.5,5.5,29.76,ESE,112,2.2,-999.0,5,-99.99,,,0.00,Acu-Link.com,2013-04-28 23:03:00,
2013-04-28 17:18:00,84.7,6.4,29.76,West,270,9.4,-999.0,5,-99.99,,,0.00,Acu-Link.com,2013-04-28 23:18:00,
2013-04-28 17:34:00,87.1,8.0,29.76,WSW,247,5.8,-999.0,5,-99.99,,,0.00,Acu-Link.com,2013-04-28 23:34:00,
2013-04-28 17:49:00,86.7,7.8,29.75,NW,315,6.7,-999.0,5,-99.99,,,0.00,Acu-Link.com,2013-04-28 23:49:00,
2013-04-28 18:04:00,88.9,9.3,29.74,West,270,2.2,-999.0,5,-99.99,,,0.00,Acu-Link.com,2013-04-29 00:04:00,
2013-04-28 18:19:00,85.5,6.9,29.74,West,270,3.1,-999.0,5,-99.99,,,0.00,Acu-Link.com,2013-04-29 00:19:00,
2013-04-28 18:34:00,85.3,6.7,29.74,WNW,292,5.8,-999.0,5,-99.99,,,0.00,Acu-Link.com,2013-04-29 00:34:00,
2013-04-28 18:50:00,86.0,7.3,29.74,West,270,2.2,-999.0,5,-99.99,,,0.00,Acu-Link.com,2013-04-29 00:50:00,
2013-04-28 19:05:00,85.1,6.6,29.74,West,270,2.7,-999.0,5,-99.99,,,0.00,Acu-Link.com,2013-04-29 01:05:00,
2013-04-28 19:20:00,82.2,4.6,29.73,WNW,292,3.1,-999.0,5,-99.99,,,0.00,Acu-Link.com,2013-04-29 01:20:00,
2013-04-28 19:35:00,79.9,6.9,29.74,WSW,247,5.8,-999.0,6,-99.99,,,0.00,Acu-Link.com,2013-04-29 01:35:00,
2013-04-28 19:51:00,76.8,4.7,29.74,WNW,292,3.8,-999.0,6,-99.99,,,0.00,Acu-Link.com,2013-04-29 01:51:00,
2013-04-28 20:06:00,74.8,3.3,29.75,WNW,292,3.1,-999.0,6,-99.99,,,0.00,Acu-Link.com,2013-04-29 02:06:00,
2013-04-28 20:21:00,73.4,5.6,29.75,NNW,337,3.8,-999.0,7,-99.99,,,0.00,Acu-Link.com,2013-04-29 02:21:00,
2013-04-28 20:36:00,71.6,7.2,29.75,WNW,292,3.8,-999.0,8,-99.99,,,0.00,Acu-Link.com,2013-04-29 02:36:00,
2013-04-28 20:52:00,70.3,6.3,29.75,West,270,4.7,-999.0,8,-99.99,,,0.00,Acu-Link.com,2013-04-29 02:52:00,
2013-04-28 21:07:00,69.4,5.6,29.76,West,270,3.1,-999.0,8,-99.99,,,0.00,Acu-Link.com,2013-04-29 03:07:00,
2013-04-28 21:22:00,69.3,5.5,29.77,NNW,337,2.7,-999.0,8,-99.99,,,0.00,Acu-Link.com,2013-04-29 03:22:00,
2013-04-28 21:37:00,68.2,4.7,29.77,NW,315,3.1,-999.0,8,-99.99,,,0.00,Acu-Link.com,2013-04-29 03:37:00,
2013-04-28 21:53:00,67.3,6.5,29.77,ESE,112,0.0,-999.0,9,-99.99,,,0.00,Acu-Link.com,2013-04-29 03:53:00,
2013-04-28 22:08:00,64.6,8.9,29.78,SSW,202,0.0,-999.0,11,-99.99,,,0.00,Acu-Link.com,2013-04-29 04:08:00,
2013-04-28 22:23:00,62.8,7.5,29.78,ENE,67,1.6,-999.0,11,-99.99,,,0.00,Acu-Link.com,2013-04-29 04:23:00,
2013-04-28 22:38:00,64.0,8.5,29.78,SE,135,3.8,-999.0,11,-99.99,,,0.00,Acu-Link.com,2013-04-29 04:38:00,
2013-04-28 22:53:00,63.7,6.1,29.78,ESE,112,2.2,-999.0,10,-99.99,,,0.00,Acu-Link.com,2013-04-29 04:53:00,
2013-04-28 23:09:00,67.5,6.7,29.79,WNW,292,4.7,-999.0,9,-99.99,,,0.00,Acu-Link.com,2013-04-29 05:09:00,
2013-04-28 23:24:00,65.5,5.2,29.79,West,270,3.1,-999.0,9,-99.99,,,0.00,Acu-Link.com,2013-04-29 05:24:00,
2013-04-28 23:39:00,64.6,6.8,29.79,WNW,292,2.2,-999.0,10,-99.99,,,0.00,Acu-Link.com,2013-04-29 05:39:00,
2013-04-28 23:54:00,63.9,6.3,29.79,WNW,292,3.8,-999.0,10,-99.99,,,0.00,Acu-Link.com,2013-04-29 05:54:00,